Regional Weather Roundup
Issued by NWS

Home | Current Version | Previous Version | Graphics & Text | Print | Product List | Glossary On
Versions: 1 2 3 4 5 6 7 8 9 10 11 12 13 14 15 16 17 18 19 20 21 22 23 24 25 26 27 28 29 30 31 32 33 34 35 36 37 38 39 40 41 42 43 44 45 46 47 48 49 50
649
ASUS43 KLOT 232108
RWRIL

ILLINOIS REGIONAL WEATHER ROUNDUP
NATIONAL WEATHER SERVICE CHICAGO/ROMEOVILLE IL
400 PM CDT WED MAY 23 2018

NOTE: "FAIR" INDICATES FEW OR NO CLOUDS BELOW 12,000 FEET WITH NO
SIGNIFICANT WEATHER AND/OR OBSTRUCTIONS TO VISIBILITY.

* THESE STATIONS ARE NOT UNDER NWS QUALITY CONTROL. THEY ALSO MAY NOT
  REPORT WEATHER SUCH AS PRECIPITATION OR FOG.

ILZ001-002-007-009-015-016-024-232200-
NORTHWEST ILLINOIS

CITY           SKY/WX    TMP DP  RH WIND       PRES   REMARKS
MOLINE         FAIR      83  64  52 VRB6      30.11F HX  84
STERLING*      FAIR      79  61  53 MISG        N/A  HX  80
SAVANNA*       FAIR      80  61  52 W3        30.13F HX  81
$$

ILZ003-004-008-010-011-017-018-232200-
NORTH CENTRAL ILLINOIS

CITY           SKY/WX    TMP DP  RH WIND       PRES   REMARKS
ROCKFORD       FAIR      78  59  51 SE5       30.16F
FREEPORT*      FAIR      75  59  56 CALM      30.17F
ROCHELLE*      FAIR      78  59  51 E5        30.15F
DE KALB*       FAIR      77  60  54 SE3       30.17F
PERU*          FAIR      82  59  46 SE5       30.15F HX  82
$$

ILZ005-006-012>014-019>023-232200-
NORTHEAST ILLINOIS

CITY           SKY/WX    TMP DP  RH WIND       PRES   REMARKS
CHICAGO-OHARE  FAIR      78  53  41 E9        30.15F
CHICAGO-MIDWAY FAIR      78  51  38 E8        30.16F
AURORA         FAIR      80  58  46 E6        30.15F HX  80
LANSING*       FAIR      76  53  45 NE7       30.17F
JOLIET*        FAIR      80  56  43 CALM      30.15F HX  80
WAUKEGAN       FAIR      69  59  70 E9        30.17F
DUPAGE AIRPORT FAIR      80  57  45 VRB3      30.15F HX  80
KANKAKEE*      FAIR      81  53  38 SE3       30.15F HX  80
WHEELING       FAIR      77  53  43 SE8       30.17F
MORRIS*        FAIR      80  59  48 E6        30.14F HX  81
ROMEOVILLE*    FAIR      79  54  41 SE5       30.16F
NORTHERLY ISL    N/A     62  55  77 NE2         N/A
$$

LMZ740>746-232200-
SOUTHERN LAKE MICHIGAN

STATION/POSITION SKY/WX   TEMP    WIND        PRES    VSBY  WAVE
                          AIR SEA DIR/SP/G                  HT/PER
                          (F)     (DEG/KT/KT) (MB)    (MI)  (FT/S)
SOUTHERN BUOY              46 40  150/  4/  4 1022.8F         0
WILMETTE HARBOR            53 52  100/  6/  8   N/A           0
HARRISON CRIB              61      90/  7/  7   N/A
BURNHAM HARBOR             61      40/  2/  4   N/A
CALUMET HARBOR             59      50/  5/  7 1021.5F
BURNS HARBOR               60      70/  9/ 10 1022.7F
MICHIGAN CITY              56      30/  6/  7   N/A
MICHIGAN CITY 6N           55 57   60/  6/  6   N/A           0
ST. JOSEPH                 57 57   50/  4/  6 1022.9          0
$$

ILZ025>027-034>036-040-047-049-050-058-095>099-232200-
WEST-CENTRAL ILLINOIS

CITY           SKY/WX    TMP DP  RH WIND       PRES   REMARKS
QUINCY         MOSUNNY   84  63  49 E9        30.10F HX  85
GALESBURG*     FAIR      84  61  46 E5        30.13F HX  84
MACOMB*        PTSUNNY   84  64  49 SE9       30.13F HX  85
JACKSONVILLE*  MOSUNNY   83  62  48 NE7       30.11F HX  84
PITTSFIELD*    MOSUNNY   85  66  52 E6        30.12F HX  86
$$

ILZ028>032-037-038-041>044-048-051>054-059>061-232200-
CENTRAL ILLINOIS

CITY           SKY/WX    TMP DP  RH WIND       PRES   REMARKS
PONTIAC        FAIR      83  52  33 NE9       30.14F HX  82
BLOOMINGTON    FAIR      86  51  29 N6        30.13F HX  84
DECATUR        FAIR      85  56  37 N10       30.12F HX  84
PEORIA         FAIR      83  60  45 E3        30.13F HX  83
LACON*         FAIR      81  59  48 E7        30.12F HX  81
LINCOLN*       FAIR      88  55  32 CALM      30.11F HX  86
SPRINGFIELD    FAIR      88  61  40 E9G17     30.10F HX  88
TAYLORVILLE    FAIR      85  55  36 NE10      30.11F HX  84
$$

ILZ033-039-045-046-055>057-062-063-232200-
EAST-CENTRAL ILLINOIS

CITY           SKY/WX    TMP DP  RH WIND       PRES   REMARKS
CHAMPAIGN      FAIR      85  50  29 NE10      30.13F HX  83
DANVILLE*      FAIR      81  54  39 N5        30.12F HX  81
RANTOUL*       FAIR      86  53  31 NE7       30.14F HX  84
MATTOON        FAIR      83  57  41 E8        30.11F HX  82
PARIS*         FAIR      84  56  38 NE8       30.13F HX  83
$$

ILZ079-100>102-232200-
SOUTHWEST ILLINOIS

CITY           SKY/WX    TMP DP  RH WIND       PRES   REMARKS
ALTON          MOSUNNY   86  66  51 NE7       30.11F HX  88
BELLEVILLE     MOSUNNY   85  67  54 NE3       30.08F HX  87
CAHOKIA*       MOSUNNY   86  65  49 VRB3      30.09F HX  88
SPARTA*        MOSUNNY   83  66  56 NE10      30.11F HX  85
$$

ILZ064>066-069>071-074>076-080>082-084>086-088>090-092>094-232200-
SOUTH-CENTRAL ILLINOIS

CITY           SKY/WX    TMP DP  RH WIND       PRES   REMARKS
CARBONDALE     FAIR      86  64  47 NE10G17   30.08F HX  87
CAIRO*         FAIR      86  65  49 NE10      30.07F HX  88
EFFINGHAM*     FAIR      85  56  36 NE6       30.12F HX  84
MARION         MOSUNNY   84  61  45 N9        30.09F HX  84
MT. VERNON     FAIR      83  62  49 NE7       30.09F HX  84
CENTRALIA*     MOSUNNY   86  62  44 N9        30.09F HX  87
SALEM*         FAIR      86  58  37 NE8       30.10F HX  85
METROPOLIS*    FAIR      87  62  43 NE5       30.08F HX  87
$$

ILZ067-068-072-073-078-083-087-091-232200-
SOUTHEAST ILLINOIS

CITY           SKY/WX    TMP DP  RH WIND       PRES   REMARKS
LAWRENCEVILLE  FAIR      88  58  36 NE12      30.10F HX  87
FLORA*         FAIR      85  59  41 NE5       30.10F HX  85
FAIRFIELD*     FAIR      85  60  42 N6        30.08F HX  85
HARRISBURG*    FAIR      86  63  46 N8        30.08F HX  86
ROBINSON*      FAIR      83  62  49 E10       30.11F HX  84
CARMI*         FAIR      87  60  39 NE7       30.07F HX  87
$$

ABBREVIATIONS USED IN REMARKS
   TC - TEMPERATURE IN CELSIUS
  WCI - WIND CHILL INDEX
   HX - HEAT INDEX
  VSB - VISIBILITY
$$





USA.gov is the U.S. government's official web portal to all federal, state and local government web resources and services.